Tracking 20242 objects as of 24-Jan-2020
HD Live streaming from Space Station
objects crossing your sky now

LANDSAT 3

Track LANDSAT 3 now!
10-day predictions
LANDSAT 3 is classified as:


NORAD ID: 10702
Int'l Code: 1978-026A
Perigee: 901.1 km
Apogee: 923.8 km
Inclination: 98.8 °
Period: 103.1 minutes
Semi major axis: 7283 km
RCS: 3.0427 m2 (large)
Launch date: March 5, 1978
Source: United States (US)
Launch site: AIR FORCE WESTERN TEST RANGE (AFWTR)
aabbcc
Your satellite tracking list
Your tracking list is empty




NASA's NSSDC Master Catalog

Two Line Element Set (TLE):
1 10702U 78026A   20023.76815613 -.00000226  00000-0 -13310-3 0  9990
2 10702  98.7600  21.8889 0015606 103.9547  69.4538 13.96683300135592
Source of the keplerian elements: AFSPC